Погода Троицко-Печерск

Хотите узнать прогноз погоды Троицко-Печерск? Тогда Вам сюда: Погода Троицко-Печерск

Поиск расширенной информации на нашем сайте:

Полезная информация:

Новости сайта



02.01.2020
Опубликован Долгосрочный прогноз погоды по городам России и ближнего зарубежья на январь 2020 года.
Карты: Прогноз на январь и февраль 2020 года, Сравнение прогнозируемой аномалии приземной температуры воздуха на январь 2020 года по разным моделям.




Погода Троицко-Печерск - сегодня

Время (UTC), дата Ветер
(°,м/с) 
Видим.   Явления Облачность Т
(°С)
Тd
(°С)
f(%) Тe
(°С)
Pmin
(гПа)
dP
(гПа)
Po
(мм)
O2
(г/м3)
Тmin Tmax R s Состояние
почвы
06 05.04.20 270 (З) 20000 м    8/4 600 м средняя 
[Cu med, cong|Ac trans]
+2.5 -3.1 66 +1  1007.3  0.8  743  297           
09 05.04.20 250 (З) 20000 м    8/4 600 м верхняя 
[Cu med, cong|Ci fib]
+3.6 -5.6 51 +2  1007.8  0.6  743  296           
12 05.04.20 250 (З) 20000 м    8/4 600 м верхняя 
[Cu med, cong|Ci fib]
+3.8 -9.2 38 +3  1008.6  0.7  744  296           
15 05.04.20 280 (З) 20000 м    8/3 600 м средняя 
[Sc diur, vesp|Ac trans]
+0.9 -11.6 39 1010.4  1.6  745  300    +4.5       
18 05.04.20 290 (З) 20000 м    6/0 средняя 
[Ac trans]
-2.2 -6 75 -2  1011.5  746  304           
21 05.04.20 270 (З) 20000 м    9/0 средняя 
[Ac As]
-4.3 -5.6 91 -6  1011.6  -0.1  746  306           
00 06.04.20 270 (З) 20000 м    10/0 средняя 
[Ac und]
-6.1 -9.1 79 -8  1011.8  0.1  746  308           
03 06.04.20 260 (З) 20000 м    3/0 верхняя 
[Cs]
-3.9 -11.3 56 -5  1011.8  0.1  746  306  -6.4         
06 06.04.20 260 (З) 20000 м    ясно 
-0.1 -11.7 41 -2  1012.1  0.6  746  302           
09 06.04.20 280 (З) 4{10}  20000 м    8/5 300 м кучево-дожд., средняя 
[Cb cap|Ac trans]
+0.5 -10.3 44 -2  1013.4  1.3  747  302           
12 06.04.20 300 (СЗ) 3{11}  20000 м  в посл. час крупа  8/5 300 м кучево-дожд., средняя 
[Cb cap|Ac trans]
-0.8 -9.2 53 -3  1015.6  749  304           
15 06.04.20 290 (З) 2{10}  20000 м    8/3 300 м кучево-дожд., средняя, верхняя 
[Cb cap|Ac trans|Cs]
-1.2 -13.3 39 -2  1016.6  750  305    +1  0.0     
18 06.04.20 290 (З) 20000 м    3/0 верхняя 
[Cs]
-3.8 -7.4 76 -5  1017  0.3  750  307           
21 06.04.20 310 (СЗ) 20000 м  {ливн. осадки}  8/3 300 м кучево-дожд., средняя 
[Cb cap|Ac As]
-4.7 -6.9 85 -7  1016.5  -0.5  749  308           
00 07.04.20 320 (СЗ) 20000 м  {ливн. осадки}  8/3 300 м кучево-дожд., средняя 
[Cb cap|Ac As]
-5.7 -8.1 83 -7  1016.7  0.1  749  309           
03 07.04.20 330 (СЗ) 10 км  слаб. ливневой снег  10/6 480 м кучево-дожд., средняя 
[Cb cap|Ac As]
-6.2 -7.1 93 -9  1017.6  0.9  750  310  -6.2    0.5  52  равномерный
сухой снег
100% 
06 07.04.20 320 (СЗ) 10 км  слаб. ливневой снег  8/8 630 м кучево-дожд. 
[Cb cap]
-5.6 -11.8 62 -9  1018.2  0.6  751  310  -6.6         
09 07.04.20 340 (С) 10 км  слаб. ливневой снег  9/9 800 м кучево-дожд. 
[Cb cap]
-4.4 -11.8 56 -7  1018.4  0.3  751  309           
12 07.04.20 010 (С) 20000 м  {ливн. осадки}  8/8 570 м кучево-дожд. 
[Cb cap]
-3 -15.1 39 -6  1018.5  0.2  751  307           
15 07.04.20 350 (С) 20000 м    4/4 600 м кучево-дожд. 
[Cb cap]
-4.4 -13 51 -7  1019  0.5  751  309    -2.5  0.2     
18 07.04.20 330 (СЗ) 20000 м    ясно 
-7 -12.7 64 -10  1018  -1.2  750  311           
21 07.04.20 320 (СЗ) 20000 м    ясно 
-8.7 -13 71 -12  1016.6  -1.4  749  313           
00 08.04.20 320 (СЗ) 20000 м    ясно 
-9.5 -13.7 71 -12  1014  -2.6  747  313           
03 08.04.20 330 (СЗ) 20000 м    ясно 
-9.2 -13.1 73 -12  1012.5  -1.5  746  312  -10.6      52  равномерный
сухой снег
100% 
06 08.04.20 340 (С) 5{11}  20000 м    ясно 
-4.3 -13.9 47 -8  1009.3  -2.8  744  306           
Время (UTC), дата Ветер
(°,м/с) 
Видим.   Явления Облачность Т
(°С)
Тd
(°С)
f(%) Тe
(°С)
Pmin
(гПа)
dP
(гПа)
Po
(мм)
O2
(г/м3)
Тmin Tmax R s Состояние
почвы

Для получения пояснительной информации подведите курсор к названию столбца.

ПОГОДА Троицко-Печерск - архив

Всё, что Вы хотите узнать о погоде Троицко-Печерск - удобно и подробно!

Выберите нужную дату (начиная с 1 января 2019* года) и нажмите кнопку "Найти".
Будут отображены архивные сводки погоды по пункту Троицко-Печерск, начиная с указанной даты.


Отображать данные в формате CSV (для использования в таблицах Excel)


Внимание! Наш архив погоды предназначен исключительно для личного некоммерческого использования в познавательных целях. Если Вам необходимы официальные справки о состоянии погоды (для производственных, юридических, коммерческих и т.п. целей), обращайтесь в органы Росгидромета.

*Примечание: данная дата относится к архиву по метеостанциям СССР (Россия, СНГ, Балтия).
Архив по метеостанциям Зарубежной Европы и Азии (кроме Китая) хранится 10 дней, по другим регионам земного шара (Китай, Африка, Америка, Австралия, Океания) - 1 день.

Троицко-Печерск - район местоположения метеостанции


Название, широта, долгота, высота метеостанции:
Троицко-Печерск 62.7°ш. 56.2°д. 139 м над ур. моря [Российская Федерация]

Дополнительная информация

В oтличие oт бoльшинства пoгoдных сайтoв мы публикуем пoдрoбную метеoинфoрмацию в детальнoм прoфессиoнальнoм фoрмате.

Характеристики температуры и влажнoсти вoздуха измеряются на высoте 2 м в тени вдали oт зданий и деревьев.
Скoрoсть ветра измеряется на высoте 10 м (на урoвне рoста челoвека скoрoсть ветра ниже в 1.5-2 раза). Если метеoстанция нахoдится в гoрoде или в лесу, тo скoрoсть ветра занижена на 2-4 м/с пo сравнению с oткрытым местoм. Скoрoсть ветра над акватoриями крупных рек и oзёр, а также на вершинах хoлмoв на 2-5 м/с выше, чем в oбычных услoвиях.
Атмoсфернoе давление в разных тoчках местнoсти мoжет значительнo oтличаться oт давления на метеoстанции, в зависимoсти oт услoвий рельефа (при пoдъёме на 10 м давление пoнижается примернo на 1 мм рт.ст.).